カタログに戻る

DELTA 1 DEB

YO

運用中HEO
NORAD 28145·DEBRIS·🇺🇸 United States

打ち上げ Mar 10, 1977 から Cape Canaveral Space Force Station

Loading…

次のパス (今後24時間)

TLE

最新Source: Space-Track

元期: Sep 14, 2026, 02:02 UTC

1 28145U 77018F   26257.08483032  .00005329  00000-0  12172-2 0  9997
2 28145  24.4512 203.2994 4796460  31.3278 349.9800  5.92930481460070

AllMySatでDELTA 1 DEBをリアルタイム追跡

Download on the App Store